This is the latest recevied weather packets stored in our database for station/object W2GRK-15. If no packets are shown the sender has not sent any weather packets the latest 10 day(s).
| Time | Temp. | Humidity | Pressure | Rain* | Wind** | Luminosity | Snow |
|---|---|---|---|---|---|---|---|
| 1777436298 | 12.22° C | 58% | 1019.3 hPa | 0 mm | - | 0 W/m² | - |
| 1777436056 | 12.22° C | 56% | 1019.5 hPa | 0 mm | - | 0 W/m² | - |
| 1777435219 | 12.22° C | 59% | 1019.4 hPa | 0 mm | - | 0 W/m² | - |
| 1777435042 | 12.22° C | 63% | 1019.1 hPa | 0 mm | - | 0 W/m² | - |
| 1777434929 | 12.22° C | 63% | 1019.3 hPa | 0 mm | - | 0 W/m² | - |
| 1777434643 | 12.22° C | 62% | 1018.9 hPa | 0 mm | - | 0 W/m² | - |
| 1777433899 | 12.78° C | 60% | 1018.9 hPa | 0 mm | - | 0 W/m² | - |
| 1777433850 | 12.78° C | 60% | 1018.9 hPa | 0 mm | - | 0 W/m² | - |
| 1777433367 | 12.78° C | 60% | 1019.2 hPa | 0 mm | - | 0 W/m² | - |
| 1777433238 | 12.78° C | 58% | 1019.1 hPa | 0 mm | - | 0 W/m² | - |
| 1777433190 | 12.78° C | 59% | 1018.9 hPa | 0 mm | - | 0 W/m² | - |
| 1777433125 | 12.78° C | 60% | 1018.9 hPa | 0 mm | - | 0 W/m² | - |
| 1777432819 | 12.78° C | 61% | 1018.8 hPa | 0 mm | - | 0 W/m² | - |
| 1777431498 | 12.78° C | 61% | 1018.7 hPa | 0 mm | - | 0 W/m² | - |
| 1777431227 | 12.78° C | 62% | 1018.9 hPa | 0 mm | - | 0 W/m² | - |
| 1777431143 | 12.78° C | 62% | 1018.9 hPa | 0 mm | - | 0 W/m² | - |
| 1777430965 | 12.78° C | 61% | 1018.9 hPa | 0 mm | - | 0 W/m² | - |
| 1777430724 | 12.78° C | 61% | 1018.7 hPa | 0 mm | - | 0 W/m² | - |
| 1777430659 | 12.78° C | 60% | 1018.7 hPa | 0 mm | - | 0 W/m² | - |
| 1777430611 | 12.78° C | 59% | 1018.7 hPa | 0 mm | - | 0 W/m² | - |
| 1777430018 | 12.78° C | 60% | 1018.3 hPa | 0 mm | - | 0 W/m² | - |
| 1777429591 | 13.33° C | 59% | 1018.1 hPa | 0 mm | - | 0 W/m² | - |
| 1777429466 | 13.33° C | 59% | 1018.3 hPa | 0 mm | - | 0 W/m² | - |
| 1777429225 | 13.33° C | 57% | 1018.7 hPa | 0 mm | - | 0 W/m² | - |
| 1777428806 | 13.33° C | 57% | 1018.2 hPa | 0 mm | - | 0 W/m² | - |
* Rain latest hour (hover to see other rain measurements)
** Current wind speed in m/s (hover to see current wind gust speed)